Red Bluff, CA

10:33 PM PST on November 19, 2017 (GMT -0800)
Red Bluff Municipal

Weather History for KRBL - March, 2013

Change the Weather History Date:

Wednesday, March 20, 2013

  Actual Average Record
Temperature  
Mean Temperature 57 °F -  
Max Temperature 62 °F 67 °F 84 °F (1947)
Min Temperature 52 °F 43 °F 31 °F (1952)
Degree Days  
Heating Degree Days 8    
Growing Degree Days 7 (Base 50)    
Moisture  
Dew Point 49 °F    
Average Humidity 79    
Maximum Humidity 90    
Minimum Humidity 39    
Precipitation  
Precipitation 0.08 in - - ()
Sea Level Pressure  
Sea Level Pressure 30.02 in    
Wind  
Wind Speed 18 mph (SSE)    
Max Wind Speed 29 mph    
Max Gust Speed 37 mph    
Visibility 10 miles    
Events Rain    
Averages and records for this station are not official NWS values.
T = Trace of Precipitation, MM = Missing Value Source: NWS Daily Summary

Daily Weather History Graph

Daily Weather History Graph

Search for Another Location

Airport or City:

Trip Planner

Search our weather history database for the weather conditions in past years. The results will help you decide how hot, cold, wet, or windy it might be!

Date:

Astronomy

Mar. 20, 2013 Rise Set
Actual Time 7:11 AM PDT 7:21 PM PDT
Civil Twilight 6:44 AM PDT 7:48 PM PDT
Nautical Twilight 6:13 AM PDT 8:20 PM PDT
Astronomical Twilight 5:40 AM PDT 8:52 PM PDT
Moon 1:01 PM PDT 2:55 AM PDT
Length of Visible Light 13h 03m
Length of Day
12h 09m
First Quarter, 60% of the Moon is Illuminated
Mar 20
First Quarter
Mar 27
Full
Apr 2
Last Quarter
Apr 10
New
Apr 18
First Quarter

Hourly Weather History & Observations

Time (PDT) Temp. Dew Point Humidity Pressure Visibility Wind Dir Wind Speed Gust Speed Precip Events Conditions
12:30 AM 51.8 °F 46.4 °F 82% 30.05 in 10.0 mi SSE 18.4 mph - 0.00 in Rain Light Rain
12:46 AM 51.8 °F 46.4 °F 82% 30.04 in 10.0 mi SSE 18.4 mph 27.6 mph 0.00 in   Overcast
12:54 AM 51.1 °F 46.9 °F 86% 30.04 in 10.0 mi South 18.4 mph - 0.00 in   Overcast
1:07 AM 51.8 °F 48.2 °F 88% 30.04 in 10.0 mi South 18.4 mph - N/A   Overcast
1:54 AM 51.1 °F 48.0 °F 89% 30.03 in 10.0 mi SSE 19.6 mph 26.5 mph N/A   Overcast
2:54 AM 52.0 °F 48.9 °F 89% 30.01 in 10.0 mi SSE 21.9 mph 27.6 mph N/A   Overcast
3:54 AM 53.1 °F 48.9 °F 86% 29.99 in 10.0 mi SSE 21.9 mph 29.9 mph N/A   Overcast
4:54 AM 53.1 °F 50.0 °F 89% 29.99 in 9.0 mi SSE 21.9 mph 27.6 mph 0.00 in Rain Light Rain
5:03 AM 53.6 °F 50.0 °F 88% 29.98 in 9.0 mi SSE 16.1 mph 24.2 mph 0.01 in Rain Light Rain
5:54 AM 53.1 °F 50.0 °F 89% 30.01 in 8.0 mi South 18.4 mph - 0.01 in Rain Light Rain
6:54 AM 53.1 °F 48.9 °F 86% 30.01 in 10.0 mi South 15.0 mph 24.2 mph 0.04 in   Overcast
7:01 AM 53.6 °F 48.2 °F 82% 30.01 in 10.0 mi South 20.7 mph 26.5 mph N/A   Overcast
7:28 AM 53.6 °F 50.0 °F 88% 30.01 in 6.0 mi South 18.4 mph 24.2 mph 0.00 in Rain Light Rain
7:52 AM 53.6 °F 50.0 °F 88% 30.02 in 10.0 mi SSE 13.8 mph - 0.01 in   Overcast
7:54 AM 53.1 °F 50.0 °F 89% 30.01 in 10.0 mi SSE 13.8 mph - 0.01 in   Overcast
8:54 AM 54.0 °F 51.1 °F 90% 30.01 in 10.0 mi SSE 18.4 mph 25.3 mph 0.00 in   Overcast
9:54 AM 55.0 °F 51.1 °F 86% 30.03 in 10.0 mi SSE 17.3 mph 23.0 mph N/A   Overcast
10:30 AM 55.4 °F 51.8 °F 88% 30.03 in 10.0 mi SSE 18.4 mph - N/A   Overcast
10:54 AM 57.0 °F 50.0 °F 77% 30.03 in 10.0 mi SSE 18.4 mph 27.6 mph N/A   Overcast
11:54 AM 57.9 °F 51.1 °F 78% 30.03 in 10.0 mi SSE 19.6 mph - N/A   Overcast
12:54 PM 57.9 °F 51.1 °F 78% 30.03 in 10.0 mi SSE 18.4 mph 27.6 mph N/A   Overcast
1:54 PM 59.0 °F 52.0 °F 78% 30.01 in 10.0 mi SSE 21.9 mph 33.4 mph N/A   Overcast
2:54 PM 61.0 °F 52.0 °F 72% 30.00 in 10.0 mi SSE 23.0 mph 32.2 mph N/A   Overcast
3:54 PM 61.0 °F 52.0 °F 72% 29.99 in 10.0 mi SSE 24.2 mph 31.1 mph N/A   Mostly Cloudy
4:54 PM 61.0 °F 52.0 °F 72% 29.97 in 10.0 mi SSE 21.9 mph 32.2 mph 0.00 in   Overcast
5:17 PM 60.8 °F 51.8 °F 72% 29.98 in 10.0 mi SSE 25.3 mph 36.8 mph N/A   Overcast
5:54 PM 61.0 °F 52.0 °F 72% 29.97 in 10.0 mi SSE 28.8 mph 35.7 mph N/A   Mostly Cloudy
6:54 PM 59.0 °F 52.0 °F 78% 29.99 in 10.0 mi SSE 27.6 mph 34.5 mph N/A   Partly Cloudy
7:54 PM 57.9 °F 52.0 °F 81% 30.00 in 10.0 mi SSE 10.4 mph - N/A   Clear
8:54 PM 55.9 °F 52.0 °F 87% 30.02 in 10.0 mi SSE 10.4 mph - N/A   Partly Cloudy
9:35 PM 57.2 °F 51.8 °F 82% 30.06 in 10.0 mi NW 6.9 mph - N/A   Mostly Cloudy
9:54 PM 57.0 °F 52.0 °F 83% 30.07 in 10.0 mi Variable 3.5 mph - N/A   Overcast
10:14 PM 57.2 °F 51.8 °F 82% 30.08 in 10.0 mi Calm Calm - N/A   Mostly Cloudy
10:54 PM 55.4 °F 37.4 °F 51% 30.09 in 10.0 mi Calm Calm - N/A   Partly Cloudy
11:54 PM 52.0 °F 35.1 °F 53% 30.08 in 10.0 mi NNW 4.6 mph - N/A   Partly Cloudy